period_start,C,m1,H,J0,J1,J2,J3,J4,J5,JA,JB,JC,JD,JJ,JK,JN,#
2017-12-05 00:04:01,2.25,2.10,2.00,7.82,10.38,13.80,14.72,44.27,1024.92,2094.01,2811.13,2628.58,2993.23,599.99,633.36,12.16,0000 0000 0000 0000 000000
2017-12-05 00:09:03,3.58,2.25,2.00,7.84,10.40,13.82,14.86,44.38,1024.92,2094.00,2762.69,2589.24,2950.04,600.18,633.42,12.21,0000 0000 0000 0000 000000
2017-12-05 00:14:04,4.07,2.45,2.00,7.85,10.42,13.85,14.74,44.38,1024.92,2093.95,2704.11,2541.33,2897.40,599.76,632.96,12.26,0000 0000 0000 0000 000000
2017-12-05 00:19:05,3.67,2.66,2.00,7.89,10.44,13.85,14.78,44.38,1024.91,2093.36,2648.47,2495.73,2847.47,599.72,632.92,12.31,0000 0000 0000 0000 000000
2017-12-05 00:24:07,4.03,2.85,2.00,7.89,10.46,13.89,14.78,44.44,1024.88,2093.04,2594.23,2451.07,2798.52,600.04,633.22,12.36,0000 0000 0000 0000 000000
2017-12-05 00:29:08,2.85,3.02,2.40,7.91,10.49,13.88,14.76,44.57,1024.80,2093.00,2551.40,2416.02,2760.02,599.79,632.74,12.41,0000 0000 0000 0000 000000
2017-12-05 00:34:09,0.41,3.09,3.00,7.93,10.51,13.94,14.73,44.53,1024.90,2093.00,2538.73,2406.17,2749.36,599.74,632.95,12.47,0000 0000 0000 0000 000000
2017-12-05 00:39:11,0.07,3.09,3.00,7.94,10.53,13.95,14.75,44.42,1024.92,2092.99,2537.51,2405.08,2748.17,599.98,633.08,12.52,0000 0000 0000 0000 000000
2017-12-05 00:44:12,0.01,3.10,3.00,7.95,10.55,13.95,14.68,44.49,1024.92,2092.97,2536.89,2404.92,2747.89,599.75,632.84,12.57,0000 0000 0000 0000 000000
2017-12-05 00:49:14,0.08,3.10,3.00,7.97,10.57,13.98,14.77,44.46,1024.93,2092.91,2535.91,2404.06,2746.94,600.26,633.39,12.62,0000 0000 0000 0000 000000
2017-12-05 00:54:15,0.07,3.10,3.00,7.99,10.59,14.04,14.75,44.45,1024.94,2092.88,2534.95,2403.10,2746.00,599.81,632.79,12.67,0000 0000 0000 0000 000000
2017-12-05 00:59:16,0.03,3.10,1.70,8.02,10.61,14.05,14.79,44.52,1024.94,2092.70,2534.12,2402.72,2745.19,600.18,633.11,12.72,0000 0000 0000 0000 000000
2017-12-05 01:04:17,-0.01,3.10,0.00,8.04,10.63,14.07,14.72,44.49,1024.94,2092.37,2533.85,2402.06,2744.98,599.74,632.66,12.77,0000 0000 0000 0000 000000
2017-12-05 01:09:19,0.01,3.11,0.00,8.05,10.65,14.09,14.80,44.48,1024.92,2092.12,2533.09,2401.96,2744.36,600.59,633.33,12.82,0000 0000 0000 0000 000000
2017-12-05 01:14:20,0.06,3.11,0.00,8.06,10.67,14.09,14.68,44.44,1024.94,2092.07,2532.30,2401.21,2743.87,600.01,632.84,12.87,0000 0000 0000 0000 000000
2017-12-05 01:19:21,0.05,3.11,0.00,8.06,10.69,14.08,14.73,44.58,1024.97,2092.03,2531.20,2400.82,2743.08,599.65,632.34,12.92,0000 0000 0000 0000 000000
2017-12-05 01:24:23,0.05,3.11,0.00,8.04,10.70,14.08,14.77,44.46,1025.20,2092.02,2530.36,2400.10,2742.78,599.67,632.78,12.97,0000 0000 0000 0000 000000
2017-12-05 01:29:24,0.01,3.12,0.00,8.01,10.71,14.09,14.73,44.57,1025.30,2092.01,2530.00,2400.00,2742.13,600.02,633.26,13.02,0000 0000 0000 0000 000000
2017-12-05 01:34:25,0.02,3.12,0.00,7.97,10.72,14.08,14.81,44.51,1025.11,2092.01,2529.54,2399.97,2742.00,600.01,633.17,13.07,0000 0000 0000 0000 000000
2017-12-05 01:39:26,0.02,3.12,0.00,7.96,10.73,14.12,14.77,44.58,1025.06,2092.01,2529.03,2399.65,2741.93,599.85,632.98,13.12,0000 0000 0000 0000 000000
2017-12-05 01:44:28,0.03,3.12,0.00,7.94,10.74,14.08,14.81,44.51,1025.15,2092.00,2528.93,2399.06,2741.36,599.99,633.29,13.17,0000 0000 0000 0000 000000
2017-12-05 01:49:29,0.02,3.12,0.00,7.92,10.74,14.03,14.86,44.69,1025.33,2092.00,2528.35,2399.01,2741.04,599.93,633.39,13.22,0000 0000 0000 0000 000000
2017-12-05 01:54:30,0.00,3.12,0.00,7.90,10.73,14.07,14.82,44.74,1025.36,2092.00,2528.02,2398.99,2741.00,600.16,633.62,13.27,0000 0000 0000 0000 000000
2017-12-05 01:59:32,0.00,3.12,0.00,7.89,10.72,14.07,14.78,44.75,1025.40,2092.00,2528.00,2398.94,2740.98,600.02,633.41,13.32,0000 0000 0000 0000 000000
2017-12-05 02:04:33,0.01,3.12,0.00,7.88,10.71,14.01,14.82,44.77,1025.38,2092.00,2527.97,2398.80,2740.86,600.19,633.67,13.37,0000 0000 0000 0000 000000
2017-12-05 02:09:34,0.05,3.12,0.00,7.86,10.71,13.97,14.81,44.80,1025.40,2092.00,2527.43,2398.28,2740.24,599.79,633.44,13.42,0000 0000 0000 0000 000000
2017-12-05 02:14:36,0.01,3.12,0.00,7.87,10.70,13.92,14.78,44.81,1025.39,2092.00,2527.05,2398.10,2740.06,600.14,633.70,13.47,0000 0000 0000 0000 000000
2017-12-05 02:19:37,0.00,3.13,0.00,7.86,10.69,13.90,14.88,44.93,1025.30,2092.00,2526.99,2398.02,2740.00,600.23,633.76,13.52,0000 0000 0000 0000 000000
2017-12-05 02:24:38,0.00,3.13,0.00,7.86,10.69,13.92,14.69,44.77,1025.27,2092.00,2526.75,2398.00,2739.98,599.48,632.82,13.57,0000 0000 0000 0000 000000
2017-12-05 02:29:40,0.01,3.13,0.00,7.85,10.68,13.91,14.86,44.83,1025.40,2092.00,2526.12,2397.99,2739.86,600.19,633.81,13.62,0000 0000 0000 0000 000000
2017-12-05 02:34:41,0.01,3.13,0.00,7.86,10.66,13.95,14.77,44.65,1025.40,2092.01,2526.00,2397.96,2739.38,599.98,633.57,13.67,0000 0000 0000 0000 000000
2017-12-05 02:39:42,0.01,3.13,0.00,7.86,10.66,13.94,14.85,44.66,1025.44,2092.01,2525.95,2397.85,2739.05,600.30,633.88,13.72,0000 0000 0000 0000 000000
2017-12-05 02:44:44,0.04,3.13,0.00,7.88,10.65,13.91,14.78,44.67,1025.43,2092.01,2525.31,2397.32,2738.99,600.07,633.54,13.77,0000 0000 0000 0000 000000
2017-12-05 02:49:45,0.00,3.13,0.00,7.89,10.64,13.89,14.71,44.58,1025.43,2092.01,2525.00,2397.03,2738.99,599.98,633.48,13.82,0000 0000 0000 0000 000000
2017-12-05 02:54:46,0.00,3.13,0.00,7.89,10.64,13.94,14.80,44.60,1025.42,2092.01,2524.98,2397.01,2738.86,600.13,633.73,13.87,0000 0000 0000 0000 000000
2017-12-05 02:59:48,0.02,3.13,0.00,7.89,10.64,13.95,14.74,44.55,1025.45,2092.01,2524.77,2397.00,2738.24,599.87,633.55,13.92,0000 0000 0000 0000 000000
2017-12-05 03:04:49,0.01,3.13,0.00,7.91,10.64,13.86,14.75,44.62,1025.58,2092.01,2524.17,2396.98,2738.03,600.07,633.58,13.97,0000 0000 0000 0000 000000
2017-12-05 03:09:50,0.00,3.13,0.00,7.91,10.64,13.96,14.89,44.71,1025.57,2092.02,2524.03,2396.96,2738.00,600.26,633.83,14.02,0000 0000 0000 0000 000000
2017-12-05 03:14:52,0.00,3.13,0.00,7.92,10.64,13.88,14.83,44.69,1025.65,2092.02,2523.98,2396.82,2737.98,600.14,633.72,14.07,0000 0000 0000 0000 000000
2017-12-05 03:19:53,0.03,3.13,0.00,7.93,10.64,13.85,14.82,44.73,1025.79,2092.02,2523.75,2396.38,2737.84,600.04,633.78,14.12,0000 0000 0000 0000 000000
2017-12-05 03:24:55,0.04,3.14,0.00,7.94,10.64,13.93,14.73,44.57,1025.88,2092.01,2523.11,2396.08,2737.21,600.28,633.95,14.17,0000 0000 0000 0000 000000
2017-12-05 03:29:56,0.00,3.14,0.00,7.95,10.64,13.90,14.79,44.60,1025.89,2092.01,2523.00,2396.01,2737.04,600.06,633.73,14.22,0000 0000 0000 0000 000000
2017-12-05 03:34:57,0.00,3.14,0.00,7.96,10.64,13.89,14.77,44.60,1025.89,2092.02,2522.96,2396.00,2737.00,599.94,633.53,14.27,0000 0000 0000 0000 000000
2017-12-05 03:39:58,0.01,3.14,0.00,7.98,10.64,13.88,14.76,44.62,1025.91,2092.00,2522.45,2396.00,2736.98,600.07,633.51,14.32,0000 0000 0000 0000 000000
2017-12-05 03:45:00,0.01,3.14,0.00,7.99,10.64,13.90,14.76,44.63,1026.05,2092.02,2522.05,2395.98,2736.88,599.90,633.51,14.37,0000 0000 0000 0000 000000
2017-12-05 03:50:01,0.02,3.14,0.00,8.00,10.64,13.87,14.83,44.67,1025.95,2092.01,2522.00,2395.89,2736.38,600.38,634.00,14.42,0000 0000 0000 0000 000000
2017-12-05 03:55:02,0.02,3.14,0.00,8.01,10.64,13.89,14.77,44.67,1025.91,2092.00,2521.91,2395.55,2736.03,600.19,633.59,14.47,0000 0000 0000 0000 000000
2017-12-05 04:00:04,0.02,3.14,0.00,8.02,10.65,13.91,14.75,44.58,1025.90,2092.01,2521.41,2395.20,2736.00,600.03,633.56,14.52,0000 0000 0000 0000 000000
2017-12-05 04:05:05,0.01,3.14,0.00,8.03,10.66,13.95,14.78,44.70,1025.91,2092.01,2521.04,2395.04,2735.99,600.10,633.60,14.57,0000 0000 0000 0000 000000
2017-12-05 04:10:07,0.00,3.14,0.00,8.04,10.66,13.89,14.77,44.70,1025.93,2092.00,2520.99,2395.01,2735.86,600.08,633.54,14.62,0000 0000 0000 0000 000000
2017-12-05 04:15:08,0.02,3.14,0.00,8.06,10.66,13.96,14.84,44.65,1026.09,2092.00,2520.69,2394.99,2735.31,600.55,634.20,14.68,0000 0000 0000 0000 000000
2017-12-05 04:20:09,0.01,3.15,0.00,8.08,10.66,13.98,14.82,44.54,1026.32,2092.00,2520.14,2394.96,2735.04,600.10,633.68,14.73,0000 0000 0000 0000 000000
2017-12-05 04:25:10,0.01,3.15,0.00,8.09,10.67,13.98,14.79,44.74,1026.38,2092.00,2520.02,2394.86,2735.00,600.03,633.66,14.78,0000 0000 0000 0000 000000
2017-12-05 04:30:12,0.02,3.15,0.00,8.12,10.69,13.97,14.78,44.81,1026.38,2092.00,2520.00,2394.44,2734.97,599.96,633.50,14.83,0000 0000 0000 0000 000000
2017-12-05 04:35:13,0.02,3.15,0.00,8.13,10.69,13.92,14.76,44.80,1026.58,2092.00,2519.92,2394.10,2734.68,599.81,633.54,14.88,0000 0000 0000 0000 000000
2017-12-05 04:40:15,0.03,3.15,0.00,8.14,10.69,13.97,14.76,44.67,1026.59,2092.00,2519.28,2394.01,2734.10,599.91,633.59,14.93,0000 0000 0000 0000 000000
2017-12-05 04:45:16,0.00,3.15,0.00,8.15,10.69,13.98,14.82,44.65,1026.40,2091.99,2519.01,2394.00,2734.02,600.15,633.69,14.98,0000 0000 0000 0000 000000
2017-12-05 04:50:17,0.00,3.15,0.00,8.16,10.71,14.01,14.81,44.68,1026.41,2091.98,2518.99,2394.00,2733.99,600.19,633.70,15.03,0000 0000 0000 0000 000000
2017-12-05 04:55:18,0.01,3.15,0.00,8.17,10.71,14.00,14.71,44.57,1026.59,2091.98,2518.78,2393.94,2733.94,600.00,633.66,15.08,0000 0000 0000 0000 000000
2017-12-05 05:00:20,0.04,3.15,0.00,8.19,10.72,14.00,14.81,44.59,1026.78,2091.99,2518.22,2393.75,2733.42,599.94,633.63,15.13,0000 0000 0000 0000 000000
2017-12-05 05:05:21,0.02,3.15,0.00,8.21,10.73,14.03,14.68,44.64,1026.86,2091.97,2518.02,2393.46,2733.11,600.03,633.67,15.18,0000 0000 0000 0000 000000
2017-12-05 05:10:22,0.01,3.15,0.00,8.22,10.74,14.01,14.81,44.57,1026.89,2091.95,2518.00,2393.06,2733.01,600.25,633.81,15.23,0000 0000 0000 0000 000000
2017-12-05 05:15:24,0.00,3.15,0.00,8.23,10.74,13.99,14.75,44.51,1026.88,2091.93,2517.87,2393.01,2733.00,600.05,633.72,15.28,0000 0000 0000 0000 000000
2017-12-05 05:20:25,0.01,3.15,0.00,8.24,10.76,14.06,14.83,44.60,1026.87,2091.89,2517.30,2393.00,2732.93,600.14,633.77,15.33,0000 0000 0000 0000 000000
2017-12-05 05:25:27,-0.00,3.16,0.00,8.26,10.76,14.06,14.77,44.52,1026.88,2091.82,2517.02,2392.98,2732.41,600.26,633.88,15.38,0000 0000 0000 0000 000000
2017-12-05 05:30:28,0.00,3.15,0.00,8.28,10.77,14.07,14.73,44.70,1026.87,2091.70,2517.00,2392.97,2732.05,599.79,633.17,15.43,0000 0000 0000 0000 000000
2017-12-05 05:35:30,0.00,3.16,0.00,8.29,10.79,14.06,14.70,44.63,1026.88,2091.67,2516.95,2392.83,2732.01,599.72,633.22,15.48,0000 0000 0000 0000 000000
2017-12-05 05:40:31,0.02,3.16,0.00,8.31,10.79,14.11,14.76,44.52,1026.89,2091.47,2516.59,2392.35,2732.00,600.10,633.64,15.53,0000 0000 0000 0000 000000
2017-12-05 05:45:32,0.00,3.16,0.00,8.31,10.81,14.07,14.69,44.65,1026.88,2091.40,2516.17,2392.13,2731.99,599.94,633.38,15.58,0000 0000 0000 0000 000000
2017-12-05 05:50:34,0.01,3.16,0.00,8.33,10.81,14.10,14.69,44.58,1026.96,2091.42,2516.02,2392.05,2731.96,599.86,633.28,15.63,0000 0000 0000 0000 000000
2017-12-05 05:55:35,-0.01,3.16,0.00,8.34,10.83,14.10,14.81,44.63,1027.13,2091.25,2516.00,2392.03,2731.76,600.13,633.72,15.68,0000 0000 0000 0000 000000
2017-12-05 06:00:36,0.01,3.16,0.00,8.34,10.84,14.13,14.88,44.63,1027.18,2091.20,2515.99,2392.01,2731.28,600.29,633.85,15.73,0000 0000 0000 0000 000000
2017-12-05 06:05:38,-0.01,3.16,0.00,8.36,10.85,14.13,14.69,44.49,1026.98,2091.06,2515.83,2391.99,2731.02,599.66,633.23,15.78,0000 0000 0000 0000 000000
2017-12-05 06:10:39,0.01,3.16,0.00,8.36,10.86,14.11,14.84,44.48,1027.02,2091.05,2515.62,2391.98,2731.00,600.19,633.62,15.83,0000 0000 0000 0000 000000
2017-12-05 06:15:40,0.01,3.16,0.00,8.36,10.87,14.14,14.77,44.49,1027.31,2091.05,2515.23,2391.97,2731.00,600.09,633.63,15.88,0000 0000 0000 0000 000000
2017-12-05 06:20:41,0.00,3.16,0.00,8.37,10.89,14.17,14.72,44.58,1027.25,2091.01,2515.08,2391.89,2730.97,599.94,633.54,15.93,0000 0000 0000 0000 000000
2017-12-05 06:25:42,0.01,3.16,0.00,8.37,10.89,14.17,14.72,44.48,1027.11,2091.00,2515.02,2391.63,2730.86,599.87,633.43,15.98,0000 0000 0000 0000 000000
2017-12-05 06:30:44,0.03,3.16,0.00,8.37,10.91,14.18,14.80,44.56,1027.09,2091.00,2514.99,2391.13,2730.32,599.94,633.35,16.03,0000 0000 0000 0000 000000
2017-12-05 06:35:45,0.00,3.16,0.00,8.38,10.92,14.23,14.82,44.52,1027.03,2091.00,2514.98,2391.05,2730.09,600.23,633.61,16.08,0000 0000 0000 0000 000000
2017-12-05 06:40:47,0.01,3.16,0.00,8.40,10.92,14.20,14.72,44.59,1026.91,2091.00,2514.74,2391.03,2730.03,599.96,633.18,16.13,0000 0000 0000 0000 000000
2017-12-05 06:45:48,0.01,3.16,0.00,8.40,10.94,14.19,14.80,44.60,1026.96,2091.00,2514.11,2391.00,2730.00,600.22,633.51,16.18,0000 0000 0000 0000 000000
2017-12-05 06:50:49,-0.00,3.16,0.00,8.42,10.94,14.21,14.63,44.61,1027.27,2090.98,2514.01,2390.98,2729.97,599.79,633.33,16.23,0000 0000 0000 0000 000000
2017-12-05 06:55:51,0.00,3.16,0.00,8.42,10.95,14.20,14.76,44.59,1027.36,2090.99,2514.01,2390.98,2729.95,599.98,633.45,16.28,0000 0000 0000 0000 000000
2017-12-05 07:00:52,0.00,3.16,0.00,8.44,10.96,14.29,14.76,44.56,1027.36,2090.98,2514.00,2390.95,2729.85,599.91,633.44,16.33,0000 0000 0000 0000 000000
2017-12-05 07:05:53,0.01,3.16,0.00,8.44,10.97,14.27,14.74,44.54,1027.36,2090.98,2513.99,2390.95,2729.59,600.13,633.65,16.38,0000 0000 0000 0000 000000
2017-12-05 07:10:55,0.01,3.16,0.00,8.44,10.97,14.27,14.73,44.44,1027.36,2090.99,2513.97,2390.82,2729.23,600.00,633.56,16.43,0000 0000 0000 0000 000000
2017-12-05 07:15:56,0.03,3.16,0.00,8.45,10.99,14.31,14.83,44.52,1027.36,2090.97,2513.69,2390.34,2729.05,600.27,633.73,16.48,0000 0000 0000 0000 000000
2017-12-05 07:20:57,0.01,3.16,0.00,8.46,10.99,14.32,14.81,44.48,1027.37,2090.97,2513.32,2390.17,2729.01,599.82,633.32,16.53,0000 0000 0000 0000 000000
2017-12-05 07:25:58,0.00,3.16,0.00,8.47,10.99,14.29,14.71,44.46,1027.55,2090.93,2513.10,2390.04,2729.00,599.78,633.36,16.58,0000 0000 0000 0000 000000
2017-12-05 07:31:00,-0.01,3.16,0.00,8.48,11.01,14.30,14.67,44.41,1027.67,2090.84,2513.02,2390.01,2728.99,599.83,633.33,16.63,0000 0000 0000 0000 000000
2017-12-05 07:36:01,0.00,3.16,0.00,8.49,11.02,14.33,14.76,44.42,1027.78,2090.84,2513.01,2390.01,2728.99,600.05,633.59,16.68,0000 0000 0000 0000 000000
2017-12-05 07:41:02,0.00,3.16,0.00,8.49,11.02,14.33,14.77,44.42,1027.84,2090.78,2513.00,2390.00,2728.97,599.61,633.17,16.73,0000 0000 0000 0000 000000
2017-12-05 07:46:03,-0.02,3.16,0.00,8.49,11.04,14.38,14.88,44.45,1027.85,2090.71,2513.00,2390.00,2728.94,600.07,633.78,16.78,0000 0000 0000 0000 000000
2017-12-05 07:51:04,-0.02,3.16,0.00,8.50,11.04,14.32,14.74,44.39,1027.85,2090.44,2512.97,2389.99,2728.56,600.07,633.69,16.83,0000 0000 0000 0000 000000
2017-12-05 07:56:05,0.02,3.16,0.00,8.51,11.04,14.38,14.73,44.48,1027.85,2090.49,2512.86,2389.98,2728.29,599.93,633.54,16.88,0000 0000 0000 0000 000000
2017-12-05 08:01:07,0.02,3.16,0.00,8.51,11.06,14.40,14.74,44.39,1027.85,2090.55,2512.58,2389.98,2728.16,600.09,633.85,16.93,0000 0000 0000 0000 000000
2017-12-05 08:06:08,-0.01,3.16,0.00,8.51,11.07,14.36,14.77,44.43,1027.85,2090.43,2512.13,2389.95,2728.02,600.22,633.90,16.98,0000 0000 0000 0000 000000
2017-12-05 08:11:09,-0.02,3.16,0.00,8.52,11.08,14.35,14.84,44.42,1027.85,2090.21,2512.02,2389.79,2728.00,600.42,633.89,17.03,0000 0000 0000 0000 000000
2017-12-05 08:16:10,0.01,3.16,0.00,8.53,11.09,14.37,14.72,44.40,1027.87,2090.11,2512.00,2389.46,2728.00,599.80,633.36,17.08,0000 0000 0000 0000 000000
2017-12-05 08:21:11,0.01,3.16,0.00,8.54,11.09,14.39,14.71,44.35,1027.86,2090.07,2511.97,2389.10,2727.98,599.82,633.31,17.13,0000 0000 0000 0000 000000
2017-12-05 08:26:13,0.01,3.17,0.00,8.55,11.11,14.39,14.70,44.25,1027.86,2090.05,2511.86,2389.02,2727.88,600.12,633.60,17.18,0000 0000 0000 0000 000000
2017-12-05 08:31:14,0.03,3.17,0.00,8.56,11.12,14.41,14.76,44.39,1027.98,2090.04,2511.37,2389.00,2727.53,599.79,633.37,17.24,0000 0000 0000 0000 000000
2017-12-05 08:36:15,0.01,3.17,0.00,8.56,11.12,14.41,14.70,44.35,1028.00,2090.03,2511.01,2388.99,2727.05,599.87,633.54,17.29,0000 0000 0000 0000 000000
2017-12-05 08:41:16,0.00,3.17,0.00,8.56,11.13,14.39,14.75,44.33,1027.93,2090.04,2510.95,2388.97,2727.00,599.86,633.43,17.34,0000 0000 0000 0000 000000
2017-12-05 08:46:18,0.00,3.17,0.00,8.58,11.14,14.42,14.71,44.32,1028.04,2090.01,2510.82,2388.90,2726.98,599.81,633.19,17.39,0000 0000 0000 0000 000000
2017-12-05 08:51:19,0.01,3.17,0.00,8.58,11.14,14.43,14.79,44.41,1028.26,2090.01,2510.49,2388.75,2726.94,600.11,633.76,17.44,0000 0000 0000 0000 000000
2017-12-05 08:56:21,0.02,3.17,0.00,8.60,11.15,14.44,14.71,44.32,1028.33,2090.01,2510.06,2388.41,2726.78,599.72,633.44,17.49,0000 0000 0000 0000 000000
2017-12-05 09:01:22,0.01,3.17,0.00,8.61,11.17,14.45,14.77,44.34,1028.33,2090.00,2510.00,2388.14,2726.33,600.09,633.80,17.54,0000 0000 0000 0000 000000
2017-12-05 09:06:23,0.00,3.17,0.00,8.61,11.17,14.46,14.83,44.26,1028.33,2090.00,2510.00,2388.06,2726.15,600.29,633.91,17.59,0000 0000 0000 0000 000000
2017-12-05 09:11:25,0.00,3.17,0.00,8.61,11.17,14.46,14.74,44.20,1028.34,2090.00,2509.97,2388.01,2726.03,599.85,633.53,17.64,0000 0000 0000 0000 000000
2017-12-05 09:16:26,0.00,3.17,0.00,8.63,11.19,14.46,14.79,44.27,1028.34,2090.00,2509.83,2388.00,2726.02,599.88,633.56,17.69,0000 0000 0000 0000 000000
2017-12-05 09:21:27,0.01,3.17,0.00,8.62,11.19,14.48,14.75,44.22,1028.34,2090.00,2509.41,2388.00,2726.00,599.63,633.48,17.74,0000 0000 0000 0000 000000
2017-12-05 09:26:29,0.00,3.17,0.00,8.63,11.20,14.50,14.82,44.31,1028.34,2089.99,2509.17,2388.00,2725.99,599.85,633.60,17.79,0000 0000 0000 0000 000000
2017-12-05 09:31:30,0.00,3.17,0.00,8.64,11.21,14.47,14.75,44.38,1028.34,2089.99,2509.01,2387.97,2725.95,600.05,633.73,17.84,0000 0000 0000 0000 000000
2017-12-05 09:36:31,0.00,3.17,0.00,8.64,11.22,14.44,14.77,44.38,1028.30,2089.98,2509.00,2387.90,2725.76,600.02,633.62,17.89,0000 0000 0000 0000 000000
2017-12-05 09:41:33,0.02,3.17,0.00,8.64,11.22,14.47,14.73,44.41,1028.20,2089.99,2509.00,2387.69,2725.17,599.94,633.53,17.94,0000 0000 0000 0000 000000
2017-12-05 09:46:34,0.00,3.17,0.00,8.64,11.23,14.47,14.77,44.47,1027.97,2089.98,2508.98,2387.58,2725.07,599.94,633.50,17.99,0000 0000 0000 0000 000000
2017-12-05 09:51:35,0.01,3.17,0.00,8.65,11.24,14.48,14.71,44.49,1028.06,2089.97,2508.98,2387.27,2725.02,599.88,633.14,18.04,0000 0000 0000 0000 000000
2017-12-05 09:56:37,0.01,3.18,0.00,8.66,11.24,14.54,14.80,44.51,1028.12,2089.97,2508.81,2387.08,2725.01,599.99,633.47,18.09,0000 0000 0000 0000 000000
2017-12-05 10:01:38,0.01,3.18,0.00,8.66,11.24,14.52,14.70,44.48,1028.19,2089.96,2508.39,2387.04,2725.00,599.93,633.26,18.14,0000 0000 0000 0000 000000
2017-12-05 10:06:39,0.01,3.18,0.00,8.65,11.24,14.54,14.80,44.45,1028.30,2089.96,2508.13,2387.01,2724.99,599.98,633.65,18.19,0000 0000 0000 0000 000000
2017-12-05 10:11:40,-0.00,3.18,0.00,8.66,11.26,14.56,14.70,44.50,1028.23,2089.92,2508.01,2387.00,2724.95,599.86,633.29,18.24,0000 0000 0000 0000 000000
2017-12-05 10:16:42,0.01,3.18,0.00,8.67,11.26,14.54,14.76,44.44,1028.11,2089.94,2507.98,2386.99,2724.69,600.15,633.60,18.29,0000 0000 0000 0000 000000
2017-12-05 10:21:43,0.01,3.18,0.00,8.67,11.27,14.57,14.76,44.48,1028.04,2089.93,2507.92,2386.99,2724.22,599.96,633.37,18.34,0000 0000 0000 0000 000000
2017-12-05 10:26:44,0.02,3.18,0.00,8.66,11.27,14.55,14.76,44.51,1027.98,2089.91,2507.55,2386.95,2724.04,599.61,632.98,18.39,0000 0000 0000 0000 000000
2017-12-05 10:31:46,0.01,3.18,0.00,8.66,11.27,14.64,14.77,44.44,1028.11,2089.86,2507.04,2386.76,2724.01,599.97,633.29,18.44,0000 0000 0000 0000 000000
2017-12-05 10:36:47,-0.00,3.18,0.00,8.67,11.27,14.63,14.80,44.50,1028.31,2089.72,2507.00,2386.24,2723.99,600.06,633.55,18.49,0000 0000 0000 0000 000000
2017-12-05 10:41:49,0.00,3.18,0.00,8.69,11.28,14.59,14.79,44.43,1028.33,2089.64,2506.97,2386.04,2723.93,600.06,633.71,18.54,0000 0000 0000 0000 000000
2017-12-05 10:46:50,0.03,3.18,0.00,8.68,11.29,14.58,14.83,44.40,1028.33,2089.69,2506.69,2386.02,2723.63,599.91,633.50,18.59,0000 0000 0000 0000 000000
2017-12-05 10:51:51,-0.00,3.18,0.00,8.68,11.29,14.58,14.74,44.29,1028.33,2089.57,2506.05,2386.00,2723.14,599.96,633.51,18.64,0000 0000 0000 0000 000000
2017-12-05 10:56:52,-0.01,3.18,0.00,8.69,11.29,14.59,14.73,44.32,1028.34,2089.41,2506.00,2386.00,2723.01,599.81,633.44,18.69,0000 0000 0000 0000 000000
2017-12-05 11:01:54,-0.01,3.18,0.00,8.69,11.29,14.62,14.74,44.30,1028.44,2089.30,2505.95,2385.95,2722.99,599.82,633.26,18.74,0000 0000 0000 0000 000000
2017-12-05 11:06:55,0.03,3.18,0.00,8.69,11.29,14.63,14.77,44.24,1028.36,2089.39,2505.59,2385.84,2722.98,600.02,633.56,18.79,0000 0000 0000 0000 000000
2017-12-05 11:11:57,0.03,3.18,0.00,8.69,11.30,14.63,14.73,44.24,1028.35,2089.38,2505.08,2385.50,2722.85,599.96,633.48,18.84,0000 0000 0000 0000 000000
2017-12-05 11:16:58,0.02,3.18,0.00,8.69,11.31,14.67,14.75,44.28,1028.37,2089.37,2505.00,2385.11,2722.35,599.96,633.43,18.89,0000 0000 0000 0000 000000
2017-12-05 11:21:59,0.01,3.19,0.00,8.69,11.32,14.67,14.74,44.26,1028.35,2089.44,2504.98,2385.02,2722.04,599.69,633.23,18.94,0000 0000 0000 0000 000000
2017-12-05 11:27:01,0.02,3.19,0.00,8.69,11.32,14.66,14.70,44.38,1028.34,2089.59,2504.78,2385.02,2722.01,599.94,633.44,18.99,0000 0000 0000 0000 000000
2017-12-05 11:32:02,-0.00,3.19,0.00,8.69,11.32,14.58,14.86,44.33,1028.35,2089.41,2504.14,2385.00,2722.00,600.31,633.82,19.04,0000 0000 0000 0000 000000
2017-12-05 11:37:03,-0.01,3.19,0.00,8.69,11.32,14.61,14.84,44.37,1028.34,2089.26,2504.00,2384.98,2721.97,600.06,633.48,19.09,0000 0000 0000 0000 000000
2017-12-05 11:42:04,0.02,3.19,0.00,8.69,11.32,14.55,14.74,44.23,1028.34,2089.39,2503.98,2384.95,2721.83,600.13,633.66,19.14,0000 0000 0000 0000 000000
2017-12-05 11:47:06,0.02,3.19,0.00,8.70,11.34,14.58,14.78,44.28,1028.34,2089.32,2503.81,2384.75,2721.31,600.21,633.75,19.19,0000 0000 0000 0000 000000
2017-12-05 11:52:07,0.02,3.19,0.00,8.71,11.34,14.59,14.70,44.30,1028.34,2089.35,2503.32,2384.43,2721.06,599.80,633.30,19.24,0000 0000 0000 0000 000000
2017-12-05 11:57:08,0.01,3.19,0.00,8.71,11.34,14.60,14.79,44.35,1028.29,2089.37,2503.04,2384.11,2721.01,599.83,633.23,19.29,0000 0000 0000 0000 000000
2017-12-05 12:02:10,-0.01,3.19,0.00,8.71,11.34,14.64,14.78,44.39,1028.27,2089.15,2502.99,2384.01,2720.99,599.81,633.25,19.34,0000 0000 0000 0000 000000
2017-12-05 12:07:11,-0.00,3.19,0.00,8.71,11.34,14.60,14.75,44.38,1028.32,2089.11,2502.93,2384.00,2720.95,599.90,633.43,19.39,0000 0000 0000 0000 000000
2017-12-05 12:12:12,0.02,3.19,0.00,8.71,11.34,14.67,14.80,44.36,1028.33,2089.11,2502.37,2384.00,2720.75,600.01,633.50,19.44,0000 0000 0000 0000 000000
2017-12-05 12:17:14,0.01,3.19,0.00,8.72,11.36,14.65,14.76,44.35,1028.31,2089.09,2502.03,2383.97,2720.24,599.94,633.39,19.49,0000 0000 0000 0000 000000
2017-12-05 12:22:15,0.00,3.19,0.00,8.73,11.36,14.59,14.74,44.42,1028.31,2089.06,2502.00,2383.91,2720.02,599.78,633.19,19.54,0000 0000 0000 0000 000000
2017-12-05 12:27:16,0.01,3.19,0.00,8.73,11.37,14.68,14.81,44.29,1028.33,2089.06,2501.96,2383.64,2720.00,600.14,633.57,19.59,0000 0000 0000 0000 000000
2017-12-05 12:32:18,0.02,3.19,0.00,8.74,11.37,14.62,14.73,44.27,1028.33,2089.04,2501.61,2383.25,2719.99,599.79,633.24,19.64,0000 0000 0000 0000 000000
2017-12-05 12:37:19,0.01,3.19,0.00,8.74,11.37,14.65,14.72,44.23,1028.33,2089.05,2501.11,2383.06,2719.95,599.59,633.00,19.69,0000 0000 0000 0000 000000
2017-12-05 12:42:20,0.01,3.19,0.00,8.74,11.38,14.63,14.72,44.26,1028.33,2089.03,2501.00,2383.00,2719.68,599.84,633.24,19.74,0000 0000 0000 0000 000000
2017-12-05 12:47:22,0.00,3.20,0.00,8.75,11.39,14.66,14.86,44.27,1028.33,2089.03,2500.99,2383.00,2719.29,600.41,633.80,19.79,0000 0000 0000 0000 000000
2017-12-05 12:52:24,0.01,3.20,0.00,8.76,11.39,14.71,14.76,44.31,1028.33,2089.04,2500.75,2382.99,2719.04,599.90,633.19,19.84,0000 0000 0000 0000 000000
2017-12-05 12:57:25,0.01,3.20,0.00,8.78,11.39,14.71,14.65,44.33,1028.33,2089.01,2500.16,2382.97,2719.00,599.97,633.29,19.89,0000 0000 0000 0000 000000
2017-12-05 13:02:26,0.00,3.20,0.00,8.78,11.40,14.66,14.67,44.27,1028.33,2089.01,2500.01,2382.83,2718.99,599.86,633.23,19.94,0000 0000 0000 0000 000000